Weather History for Peoria, IL

Change the Weather History Date:

Saturday, May 11, 2013

  Actual Average Record
Temperature  
Mean Temperature 52 °F 61 °F  
Max Temperature 61 °F 72 °F 91 °F (2011)
Min Temperature 43 °F 50 °F 32 °F (1907)
Degree Days  
Heating Degree Days 13 6  
Month to date heating degree days 49 75  
Since 1 July heating degree days 5741 5740  
Cooling Degree Days 0 2  
Month to date cooling degree days 10 12  
Year to date cooling degree days 19 26  
Growing Degree Days 3 (Base 50)    
Moisture  
Dew Point 38 °F    
Average Humidity 61    
Maximum Humidity 93    
Minimum Humidity 29    
Precipitation  
Precipitation 0.00 in 0.14 in 2.59 in (1923)
Month to date precipitation 2.03 1.52  
Year to date precipitation 19.14 11.52  
Snow  
Snow 0.00 in 0.00 in T in (1966)
Month to date snowfall 0.0 0.0  
Since 1 July snowfall 22.7 24.6  
Snow Depth 0.00 in    
Sea Level Pressure  
Sea Level Pressure 30.01 in    
Wind  
Wind Speed 10 mph (WNW)    
Max Wind Speed 24 mph    
Max Gust Speed 36 mph    
Visibility 10 miles    
Events      
T = Trace of Precipitation, MM = Missing Value Source: NWS Daily Summary

Daily Weather History Graph

Daily Weather History Graph

Search for Another Location

Airport:

Trip Planner

Search our weather history database for the weather conditions in past years. The results will help you decide how hot, cold, wet, or windy it might be!

Date:

Astronomy

May. 11, 2013 Rise Set
Actual Time 5:45 AM CDT 8:05 PM CDT
Civil Twilight 5:14 AM CDT 8:36 PM CDT
Nautical Twilight 4:36 AM CDT 9:14 PM CDT
Astronomical Twilight 3:55 AM CDT 9:56 PM CDT
Moon 6:53 AM CDT (5/11) 9:45 PM CDT (5/11)
Length of Visible Light 15h 21m
Length of Day
14h 19m
Waxing Crescent, 3% of the Moon is Illuminated
May 11
Waxing Crescent
May 17
First Quarter
May 24
Full
May 31
Last Quarter
Jun 8
New

Hourly Weather History & Observations

Time (CDT) Temp. Windchill Dew Point Humidity Pressure Visibility Wind Dir Wind Speed Gust Speed Precip Events Conditions
12:54 AM 51.1 °F - 45.0 °F 80% 30.00 in 10.0 mi North 3.5 mph - N/A   Overcast
1:41 AM 50.0 °F - 45.0 °F 83% 30.01 in 10.0 mi NW 3.5 mph - N/A   Overcast
1:54 AM 50.0 °F - 45.0 °F 83% 30.01 in 10.0 mi Calm Calm - N/A   Overcast
2:35 AM 48.0 °F - 45.0 °F 89% 30.00 in 10.0 mi WNW 3.5 mph - N/A   Scattered Clouds
2:54 AM 48.9 °F - 45.0 °F 86% 30.01 in 10.0 mi WNW 4.6 mph - N/A   Mostly Cloudy
3:26 AM 50.0 °F - 45.0 °F 83% 29.99 in 10.0 mi Calm Calm - N/A   Overcast
3:54 AM 50.0 °F - 45.0 °F 83% 30.00 in 10.0 mi WSW 3.5 mph - N/A   Overcast
4:23 AM 48.9 °F - 45.0 °F 86% 29.98 in 10.0 mi SSW 3.5 mph - N/A   Overcast
4:54 AM 48.9 °F - 45.0 °F 86% 29.98 in 10.0 mi Calm Calm - N/A   Overcast
5:47 AM 46.9 °F - 45.0 °F 93% 29.96 in 10.0 mi SSW 3.5 mph - N/A   Partly Cloudy
5:54 AM 46.9 °F - 45.0 °F 93% 29.97 in 9.0 mi SW 4.6 mph - N/A   Partly Cloudy
6:54 AM 48.9 °F - 46.9 °F 93% 29.96 in 8.0 mi SW 5.8 mph - N/A   Clear
7:54 AM 53.1 °F - 48.0 °F 83% 29.96 in 10.0 mi WSW 8.1 mph - N/A   Clear
8:54 AM 57.2 °F - 50.0 °F 77% 29.93 in 10.0 mi WSW 12.7 mph - N/A   Mostly Cloudy
9:31 AM 55.9 °F - 48.9 °F 77% 29.93 in 10.0 mi West 15.0 mph 23.0 mph N/A   Overcast
9:54 AM 55.9 °F - 48.0 °F 75% 29.94 in 10.0 mi WNW 15.0 mph 21.9 mph N/A   Overcast
10:49 AM 60.8 °F - 46.4 °F 59% 29.94 in 10.0 mi WNW 9.2 mph 20.7 mph N/A   Mostly Cloudy
10:54 AM 60.1 °F - 46.9 °F 62% 29.95 in 10.0 mi NW 15.0 mph 25.3 mph N/A   Scattered Clouds
11:54 AM 61.0 °F - 36.0 °F 39% 29.96 in 10.0 mi WNW 21.9 mph 29.9 mph N/A   Clear
12:54 PM 59.0 °F - 28.0 °F 31% 29.97 in 10.0 mi NW 20.7 mph 36.8 mph N/A   Clear
1:54 PM 60.1 °F - 28.9 °F 31% 29.99 in 10.0 mi NW 16.1 mph 33.4 mph N/A   Clear
2:54 PM 60.1 °F - 28.0 °F 30% 30.01 in 10.0 mi NW 15.0 mph 29.9 mph N/A   Clear
3:54 PM 57.9 °F - 28.9 °F 33% 30.02 in 10.0 mi NNW 16.1 mph 29.9 mph N/A   Scattered Clouds
4:54 PM 57.9 °F - 28.9 °F 33% 30.04 in 10.0 mi NW 11.5 mph 31.1 mph N/A   Mostly Cloudy
5:54 PM 55.9 °F - 26.1 °F 32% 30.06 in 10.0 mi NW 13.8 mph 26.5 mph N/A   Mostly Cloudy
6:54 PM 53.1 °F - 27.0 °F 37% 30.07 in 10.0 mi NW 10.4 mph 24.2 mph N/A   Scattered Clouds
7:54 PM 52.0 °F - 27.0 °F 38% 30.08 in 10.0 mi NW 9.2 mph - N/A   Scattered Clouds
8:54 PM 48.9 °F - 27.0 °F 43% 30.10 in 10.0 mi NW 6.9 mph - N/A   Clear
9:54 PM 46.9 °F - 26.1 °F 44% 30.12 in 10.0 mi NW 3.5 mph - N/A   Clear
10:54 PM 45.0 °F 42.6 °F 28.0 °F 52% 30.12 in 10.0 mi West 4.6 mph - N/A   Clear
11:54 PM 44.1 °F 40.8 °F 27.0 °F 51% 30.12 in 10.0 mi WNW 5.8 mph - N/A   Clear